Theta_e
352 346 347 346 344 341 339 334 331 331 331 330 331 333 334 336 338 335 328 329 337 340 341 341 338 325 325 328 327 324 324 325 325 327 332 335 338 340 341 337 335 333 337
346 346 347 346 344 342 339 334 331 332 330 330 331 333 334 335 334 329 329 336 339 341 340 340 334 324 326 325 324 324 324 325 325 325 329 335 339 342 342 333 330 331 331
345 346 347 346 345 343 338 334 332 332 330 330 331 331 335 334 331 329 335 338 340 339 335 335 330 325 326 326 325 324 324 326 330 332 327 330 336 335 332 327 328 330 331
345 346 347 346 345 343 337 334 333 333 331 331 331 331 334 334 331 331 336 339 339 337 335 330 325 325 326 326 327 328 335 339 340 341 341 333 332 328 326 326 327 329 329
346 346 346 347 345 341 336 333 334 334 331 332 331 331 335 334 331 332 336 338 337 337 337 326 324 325 327 330 331 335 338 339 339 342 346 344 334 328 328 329 331 338 335
347 347 346 347 345 340 336 334 335 336 332 332 332 331 334 334 334 336 336 336 339 340 338 325 324 326 330 332 332 334 335 338 340 341 342 345 343 330 329 331 332 330 332
349 348 347 346 345 341 339 335 335 337 333 332 333 332 334 334 337 339 338 340 340 340 336 326 326 326 330 332 333 334 337 337 338 341 342 342 340 330 329 329 330 331 330
347 348 348 347 345 345 345 340 336 339 335 332 334 334 334 336 338 343 343 343 342 338 331 329 328 327 329 334 335 335 334 335 338 338 341 341 338 335 335 330 329 330 330
349 347 348 348 347 347 346 345 339 340 338 332 334 335 334 335 338 342 345 345 343 335 328 329 329 328 333 335 337 335 333 334 336 336 338 343 341 338 336 332 332 331 331
352 349 345 345 346 347 347 346 344 342 341 333 334 336 336 336 336 339 341 341 341 333 328 329 329 328 329 332 338 336 335 334 335 335 335 338 344 342 337 331 331 332 333
356 352 346 345 346 346 345 346 346 345 343 335 336 338 338 337 336 336 337 339 339 332 328 328 329 328 331 336 338 338 337 335 335 333 333 335 341 342 336 331 328 329 331
356 354 350 349 347 344 343 345 347 346 344 338 337 339 341 339 338 337 337 338 336 333 330 329 330 329 327 328 333 336 336 333 329 326 326 328 335 340 335 329 326 325 327
354 354 352 349 347 347 348 347 348 346 345 342 340 340 342 342 339 338 338 337 335 334 331 329 326 328 331 330 328 328 327 326 327 333 334 331 334 337 333 326 326 324 323
353 352 350 349 349 353 349 345 345 345 345 344 343 343 343 342 339 339 344 341 341 339 337 335 332 329 326 324 324 325 327 328 333 336 337 335 334 335 330 326 325 325 324
351 351 349 350 345 338 348 344 344 343 344 342 342 341 339 338 337 340 343 344 343 343 343 342 340 336 330 330 331 328 323 322 331 333 335 339 339 335 331 326 327 328 326
349 349 345 344 338 342 345 348 345 347 343 342 338 337 338 341 338 342 344 346 343 343 345 344 343 341 339 338 338 337 334 331 331 333 335 335 334 331 328 329 330 328 328
347 346 347 340 342 341 339 344 346 345 344 343 343 343 342 344 345 342 346 347 345 346 346 346 345 344 343 341 339 337 338 338 339 339 338 336 335 331 329 328 328 329 328
344 345 343 343 342 342 340 345 348 347 344 345 345 345 345 345 346 345 345 347 347 347 346 344 343 342 339 338 336 335 336 334 333 334 337 338 338 338 336 336 335 335 334
344 341 341 342 341 341 342 348 349 351 349 348 347 348 348 347 347 347 346 346 345 344 344 342 339 335 333 334 334 333 330 330 335 334 334 331 329 335 336 335 336 337 338
342 339 341 339 335 335 345 348 347 350 351 349 347 345 346 346 346 344 345 338 334 341 338 335 334 333 335 335 335 330 329 324 327 333 334 333 331 330 331 333 331 332 338
336 337 337 340 338 337 346 347 344 349 350 348 347 345 344 346 343 343 343 340 341 339 336 330 332 335 336 335 333 328 325 326 330 327 328 325 328 329 334 332 332 332 335
338 340 342 342 343 342 341 338 347 347 347 348 345 347 346 345 340 344 343 340 335 334 331 331 333 337 331 327 324 327 327 327 329 328 325 327 331 332 333 333 334 329 327
344 341 342 342 340 339 343 347 348 350 348 345 344 345 343 346 343 342 342 341 339 334 333 331 335 335 327 325 323 325 325 328 325 326 325 327 331 330 331 332 331 328 329
340 344 344 345 347 348 349 349 342 341 340 333 330 329 334 336 334 336 337 339 342 342 341 339 333 327 323 321 322 323 325 328 327 330 329 329 329 330 330 333 333 331 330
333 335 335 339 343 344 344 341 339 336 331 326 325 326 326 324 326 328 329 331 332 333 333 332 329 328 331 326 323 323 325 330 331 329 331 331 330 330 329 329 328 328 329
328 328 329 330 330 332 332 331 331 327 324 325 324 322 322 322 321 321 321 321 321 321 321 321 322 325 326 327 329 328 329 331 332 332 332 331 331 331 331 329 329 328 325
Wind_Speed
22 27 28 29 29 28 27 25 22 21 19 18 18 18 19 20 21 23 24 26 23 21 18 16 14 13 13 13 14 14 14 16 16 16 16 17 17 15 15 14 14 14 13
36 30 29 29 29 28 27 26 24 22 20 19 19 18 19 20 21 22 23 22 20 17 16 15 14 14 14 14 15 16 16 16 16 15 14 13 13 15 15 12 13 13 13
37 33 31 28 27 27 26 25 24 22 21 19 18 18 18 18 19 20 20 18 16 14 14 14 14 14 14 15 16 16 17 17 16 14 12 10 11 12 12 12 12 11 11
38 35 32 29 26 25 24 24 23 22 20 19 18 18 18 18 18 19 17 16 15 14 12 12 13 14 14 14 14 15 15 15 12 9 6 6 6 8 10 11 11 11 11
37 36 34 29 26 24 23 23 22 21 20 18 17 18 18 18 18 17 16 14 12 11 11 12 13 13 13 13 13 13 11 10 7 4 2 4 4 7 7 8 9 8 8
35 34 32 30 26 23 23 22 21 20 20 19 18 17 17 17 17 16 15 14 12 11 10 10 12 13 12 12 12 11 9 7 3 1 3 10 11 8 6 5 7 7 6
33 31 30 29 25 22 21 21 21 19 19 18 17 16 16 17 17 16 14 12 10 9 9 10 11 12 11 11 11 9 7 5 1 2 3 9 14 9 5 5 5 5 5
33 30 29 27 25 22 19 18 18 17 17 17 16 15 15 15 15 14 13 11 9 8 8 9 10 11 11 10 9 8 6 4 2 3 4 10 15 10 6 6 5 6 6
31 31 27 24 21 19 18 17 17 17 17 17 15 15 15 15 14 13 11 9 8 8 8 9 10 10 10 9 8 8 7 7 6 5 3 6 14 12 7 7 7 7 7
32 31 29 25 22 18 17 16 17 17 16 16 15 13 12 12 13 13 12 11 9 8 9 9 9 10 10 9 9 9 9 9 10 10 8 6 15 14 11 8 8 8 9
26 31 31 28 25 21 18 17 17 17 15 14 13 12 12 12 12 13 12 11 10 9 9 10 10 10 11 11 11 11 12 13 13 14 13 11 11 17 15 12 11 11 12
21 24 30 28 25 22 22 20 20 18 16 15 15 14 12 11 11 12 12 11 10 9 9 11 11 12 13 14 15 15 16 16 17 17 18 16 14 19 19 15 14 14 16
27 24 22 21 19 20 21 21 20 19 17 16 16 16 15 13 12 10 11 11 11 10 11 12 13 15 16 16 17 18 19 19 19 21 22 19 18 20 23 18 17 17 19
34 31 29 22 18 13 14 20 23 22 23 23 21 19 18 17 15 13 11 10 11 11 14 15 15 16 17 18 20 22 23 25 26 23 24 21 21 22 25 21 19 19 20
41 38 34 30 25 16 13 22 24 26 27 25 22 20 18 16 17 15 12 15 15 13 15 17 17 17 18 20 22 24 24 24 25 24 23 23 24 23 25 21 21 21 22
36 44 43 30 20 21 29 23 26 24 23 23 17 21 20 16 16 16 13 16 18 15 14 17 16 18 20 19 22 24 27 26 26 24 22 22 22 20 22 23 26 26 25
40 46 37 31 36 33 35 35 27 24 23 22 21 20 17 17 15 15 12 14 15 11 11 10 9 2 4 3 12 17 12 13 16 17 14 11 13 21 30 29 30 31 30
40 41 43 38 40 39 35 28 19 19 25 26 24 19 20 21 18 16 16 13 12 12 9 8 9 7 8 6 7 19 24 26 24 23 25 22 19 20 22 23 25 31 34
46 42 46 40 42 42 30 23 20 18 24 28 21 13 16 24 22 18 19 18 15 8 12 13 11 9 4 5 5 6 22 29 31 33 36 37 41 29 36 34 33 33 34
44 40 43 40 36 37 32 24 25 16 14 14 12 9 12 12 12 14 17 17 14 10 8 8 9 6 7 7 12 16 21 22 19 27 29 37 30 34 41 48 45 33 27
25 29 33 31 31 34 27 27 20 18 15 12 8 5 6 5 5 8 13 13 10 10 12 9 6 9 11 14 11 13 18 21 19 18 27 28 28 30 35 40 37 36 25
29 30 28 28 30 28 25 26 17 15 12 9 4 4 4 3 5 7 8 8 10 13 11 11 12 12 11 11 8 3 4 5 18 23 18 23 26 27 35 34 31 19 25
29 31 29 28 28 25 20 16 12 14 12 9 10 8 4 3 3 5 6 6 8 13 18 18 15 16 16 12 17 6 1 4 3 10 23 22 29 26 26 20 30 36 41
21 28 25 24 20 14 17 21 19 15 18 16 17 15 12 9 11 9 4 1 4 8 12 14 13 15 15 16 8 13 15 9 2 4 9 20 25 31 28 27 31 32 32
28 29 27 25 21 18 19 18 19 22 21 18 20 23 20 17 15 13 11 9 8 5 1 4 8 12 14 20 19 14 12 14 18 10 9 12 22 27 31 28 28 28 30
29 27 27 29 26 25 24 22 23 24 20 20 17 18 16 13 10 8 7 6 4 3 3 5 8 9 12 15 18 21 18 14 12 9 8 12 14 32 35 31 29 31 36
Wind_Direction
177 171 166 161 156 153 148 144 140 137 134 133 133 133 134 136 137 138 139 140 139 137 136 137 136 133 131 127 123 118 116 112 112 117 120 121 119 118 117 111 115 111 108
166 170 168 165 161 158 152 148 144 142 139 136 135 135 135 136 138 140 140 139 138 137 137 140 139 136 133 130 126 124 120 118 117 119 125 126 120 111 127 114 118 118 114
164 166 168 169 166 161 156 151 147 145 142 140 140 141 140 138 139 142 143 142 140 135 136 140 142 141 137 136 136 132 130 126 125 119 115 124 127 123 123 121 118 116 112
164 164 168 170 171 165 159 154 150 149 146 145 145 147 148 146 147 149 149 148 146 145 142 145 146 147 143 139 138 134 133 131 131 120 101 117 127 130 122 126 126 120 117
165 166 167 170 173 168 162 158 154 153 151 150 150 152 153 152 152 154 154 156 157 158 156 154 154 153 148 146 143 140 138 133 135 132 161 196 191 147 130 127 131 126 135
167 168 167 170 174 171 167 162 160 160 159 157 157 158 159 159 159 160 159 160 162 163 166 164 161 159 155 157 156 157 154 154 149 94 290 220 210 171 157 150 149 144 137
168 170 168 169 173 173 171 168 167 167 165 164 163 163 166 167 167 165 165 164 167 174 179 174 171 170 167 168 171 174 177 179 182 50 6 191 190 170 168 170 170 166 158
168 170 169 169 172 174 175 174 172 172 171 172 169 168 172 175 176 173 172 174 177 187 189 188 186 183 181 183 188 197 207 218 245 349 358 200 199 186 195 184 200 199 195
171 167 168 169 172 176 177 178 179 180 180 180 178 176 177 181 184 186 188 190 195 197 196 198 200 200 200 205 209 217 231 247 271 299 343 234 227 212 218 211 213 218 220
169 171 171 170 171 173 176 180 185 187 187 186 185 183 184 189 192 196 202 207 211 213 203 204 211 215 221 224 229 236 248 260 269 286 300 303 232 227 234 234 236 241 238
160 169 173 172 171 172 176 180 183 187 188 189 193 192 192 196 201 203 209 215 218 218 216 214 218 224 235 240 242 251 264 267 272 273 279 274 258 239 238 242 247 245 245
139 159 170 168 169 174 175 180 180 183 189 193 195 201 207 209 213 219 219 219 227 231 234 233 234 236 233 239 245 250 257 267 270 269 273 271 276 250 243 246 259 259 255
141 148 160 160 169 170 176 175 177 184 189 199 208 210 213 215 215 221 227 227 230 236 244 247 248 247 253 255 257 260 262 262 262 273 278 271 267 252 242 246 261 268 265
146 151 151 164 156 173 186 181 184 191 199 202 209 214 215 217 218 214 216 222 231 237 249 254 259 264 269 271 271 271 271 273 275 286 286 275 267 254 245 247 261 273 274
147 155 157 164 161 152 223 205 203 204 204 205 206 213 215 218 220 211 225 235 235 245 257 262 267 271 271 276 279 279 275 273 273 282 290 287 276 268 249 251 267 276 280
156 158 161 169 188 183 205 214 215 212 212 213 208 217 215 218 217 212 232 238 235 244 258 266 277 283 287 297 298 302 298 291 290 291 295 287 274 257 249 262 274 278 281
167 164 173 177 180 195 201 216 201 219 216 210 204 209 212 216 218 220 241 236 234 231 234 233 236 285 257 66 3 341 311 300 296 292 289 301 297 270 263 271 280 283 281
171 173 170 180 190 199 212 212 210 215 223 219 211 216 220 220 218 221 226 222 219 225 219 225 226 241 274 290 355 354 330 302 298 295 295 293 285 306 287 281 285 288 289
172 177 178 186 196 204 199 193 194 209 208 214 203 200 208 222 219 226 235 234 242 247 262 253 240 229 244 302 301 323 318 308 302 286 295 287 283 275 282 276 274 284 285
181 186 186 189 200 195 187 200 201 215 224 204 209 225 211 189 209 237 256 256 250 275 277 234 232 256 257 257 273 281 272 279 288 289 281 277 274 269 260 261 257 261 285
174 182 185 183 185 188 195 208 209 221 219 214 186 174 187 206 224 254 261 269 262 263 244 245 220 214 234 249 262 261 260 262 252 253 260 267 266 261 254 261 260 252 267
163 177 182 188 188 196 197 195 202 201 212 220 217 196 176 243 274 266 253 253 247 236 241 239 249 248 254 222 244 280 306 311 251 252 255 263 254 253 252 251 233 226 250
157 165 173 177 175 181 187 199 207 191 177 140 125 131 138 118 220 263 285 277 255 248 256 253 260 256 268 272 241 221 47 256 306 242 244 245 250 245 245 237 223 246 261
129 149 147 147 160 170 187 191 173 153 124 109 104 101 115 99 89 91 94 114 242 255 266 254 263 262 268 266 274 250 250 268 295 310 255 262 264 260 252 254 254 264 269
114 120 115 110 118 125 136 159 151 118 114 116 114 105 98 96 98 97 98 107 117 119 34 293 271 263 275 273 270 281 297 285 265 243 276 274 282 265 267 263 266 271 276
114 112 112 111 103 112 117 118 122 122 121 116 113 105 102 97 98 93 88 82 68 40 338 315 305 300 304 300 293 287 270 270 266 250 252 264 262 272 280 278 278 282 286